User: anonymous   Login
Location: Caltech
(34.1382°N, 118.1253°W)
Time: 19:50:42
(UTC-07:00)
Language:

KITSAT 1 - Orbit

View from above orbital plane
View from above orbital plane
View from above satellite
View from above satellite

Ground track
Ground track

The orbit data is extracted from the following two-line orbital elements,

1 22077U 92052B   17147.00042358 -.00000043 +00000-0 +74990-4 0  9999
2 22077 066.0861 010.9348 0008164 330.2218 133.4753 12.86518107164297
Epoch (UTC): 27 May 2017 00:00:36
Eccentricity: 0.0008164
inclination: 66.0861°
perigee height: 1309 km
apogee height: 1321 km
right ascension of ascending node: 10.9348°
argument of perigee: 330.2218°
revolutions per day: 12.86518107
mean anomaly at epoch: 133.4753°
orbit number at epoch: 16429

The dashed part of the orbit path shows where the satellite is in the earth's shadow,  

DLR